This is the latest recevied weather packets stored in our database for station/object W4GAP. If no packets are shown the sender has not sent any weather packets the latest 10 day(s).
| Time | Temp. | Humidity | Pressure | Rain* | Wind** | Luminosity | Snow |
|---|---|---|---|---|---|---|---|
| 1778202600 | 15.56° C | 88% | 1011.2 hPa | 0 mm | - | 0 W/m² | - |
| 1778202297 | 15.56° C | 88% | 1011.2 hPa | 0 mm | - | 0 W/m² | - |
| 1778201994 | 15.56° C | 87% | 1010.9 hPa | 0 mm | - | 0 W/m² | - |
| 1778201691 | 16.11° C | 86% | 1011 hPa | 0 mm | - | 0 W/m² | - |
| 1778201387 | 16.11° C | 86% | 1011 hPa | 0 mm | - | 0 W/m² | - |
| 1778201083 | 16.11° C | 85% | 1010.6 hPa | 0 mm | - | 0 W/m² | - |
| 1778200780 | 16.11° C | 84% | 1011 hPa | 0 mm | - | 0 W/m² | - |
| 1778200477 | 16.11° C | 84% | 1011 hPa | 0 mm | - | 0 W/m² | - |
| 1778200174 | 16.11° C | 85% | 1010.8 hPa | 0 mm | - | 0 W/m² | - |
| 1778199871 | 16.11° C | 83% | 1010.9 hPa | 0 mm | - | 0 W/m² | - |
| 1778199567 | 16.67° C | 83% | 1010.8 hPa | 0 mm | - | 0 W/m² | - |
| 1778199263 | 16.67° C | 83% | 1010.7 hPa | 0 mm | - | 0 W/m² | - |
| 1778198960 | 16.67° C | 83% | 1010.7 hPa | 0 mm | - | 0 W/m² | - |
| 1778198656 | 16.67° C | 82% | 1010.7 hPa | 0 mm | - | 0 W/m² | - |
| 1778198353 | 16.67° C | 82% | 1010.6 hPa | 0 mm | - | 0 W/m² | - |
| 1778198050 | 16.67° C | 81% | 1010.5 hPa | 0 mm | - | 1 W/m² | - |
| 1778197747 | 17.22° C | 82% | 1010.2 hPa | 0 mm | - | 4 W/m² | - |
| 1778197443 | 17.22° C | 82% | 1010.3 hPa | 0 mm | - | 3 W/m² | - |
| 1778197140 | 17.22° C | 81% | 1010.3 hPa | 0 mm | - | 1 W/m² | - |
| 1778196837 | 17.22° C | 81% | 1010.2 hPa | 0 mm | - | 2 W/m² | - |
| 1778196535 | 17.22° C | 81% | 1010.3 hPa | 0 mm | - | 4 W/m² | - |
| 1778196231 | 17.78° C | 80% | 1010.1 hPa | 0 mm | - | 6 W/m² | - |
| 1778195929 | 17.78° C | 79% | 1010.1 hPa | 0 mm | - | 4 W/m² | - |
| 1778195625 | 17.78° C | 80% | 1010.2 hPa | 0 mm | - | 8 W/m² | - |
| 1778195322 | 17.78° C | 79% | 1010 hPa | 0 mm | - | 10 W/m² | - |
* Rain latest hour (hover to see other rain measurements)
** Current wind speed in m/s (hover to see current wind gust speed)